User: anonymous   Login
Location: Melbourne
(37.8170°S, 144.9670°E)
Time: 03:51:07
(UTC+10:00)
Language:

Aureole 2 Rocket - Orbit

View from above orbital plane
View from above orbital plane
View from above satellite
View from above satellite

Ground track
Ground track

The orbit data is extracted from the following two-line orbital elements,

1  7004U 73107B   16209.89490895 +.00007510 +00000-0 +13019-3 0  9999
2  7004 073.9378 043.7431 0201075 355.7398 004.2080 15.31616234187469
Epoch (UTC): 27 July 2016 21:28:40
Eccentricity: 0.0201075
inclination: 73.9378°
perigee height: 333 km
apogee height: 609 km
right ascension of ascending node: 43.7431°
argument of perigee: 355.7398°
revolutions per day: 15.31616234
mean anomaly at epoch: 4.2080°
orbit number at epoch: 18746

The dashed part of the orbit path shows where the satellite is in the earth's shadow,  

DLR